User: anonymous   Login
Location: Bittelbronn
(48.4454°N, 8.5870°E)
Time: 19:27:55
(UTC+00:00)
Language:

Sich 1 Rocket - Orbit

View from above orbital plane
View from above orbital plane
View from above satellite
View from above satellite

Ground track
Ground track

The orbit data is extracted from the following two-line orbital elements,

1 23659U 95046C   24197.73652633  .00000757  00000-0  97951-4 0  9991
2 23659  82.5288  65.5224 0026485  55.6308   9.6708 14.79347590556269
Epoch (UTC): 15 July 2024 17:40:35
Eccentricity: 0.0026485
inclination: 82.5288°
perigee height: 613 km
apogee height: 650 km
right ascension of ascending node: 65.5224°
argument of perigee: 55.6308°
revolutions per day: 14.79347590
mean anomaly at epoch: 9.6708°
orbit number at epoch: 55626

The dashed part of the orbit path shows where the satellite is in the earth's shadow,  

DLR